EW7541 Weather Reports


time (UTC)temp
C
wind
direction
speed
KPH
gust
KPH
rain 1hr
cm
rain 24hr
cm
rain mn
cm
humidity
%
barometer
mb
20260506044019 17 0.0 0.0 0.00 0.00 0.00 55 1006.0
20260506043023 17 0.0 0.0 0.00 0.00 0.00 54 1006.4
20260506042029 17 0.0 0.0 0.00 0.00 0.00 54 1006.2
20260506041021 17 0.0 0.0 0.00 0.00 0.00 53 1006.3
20260506040019 17 0.0 0.0 0.00 0.00 0.00 53 1005.8
20260506035019 18 0.0 0.0 0.00 0.00 0.00 53 1006.0
20260506034019 18 0.0 0.0 0.00 0.00 0.00 53 1006.0
20260506033019 18 0.0 0.0 0.00 0.00 0.00 53 1006.3
20260506032020 18 0.0 0.0 0.00 0.00 0.00 54 1006.2
20260506031019 18 0.0 0.0 0.00 0.00 0.00 54 1006.3
20260506030039 18 0.0 0.0 0.00 0.00 0.00 54 1006.1
20260506025019 18 0.0 0.0 0.00 0.00 0.00 54 1006.3
20260506024020 18 0.0 0.0 0.00 0.00 0.00 54 1006.1
20260506023019 18 0.0 0.0 0.00 0.00 0.00 54 1005.8
20260506022019 18 0.0 0.0 0.00 0.00 0.00 54 1005.9
20260506021019 18 0.0 0.0 0.00 0.00 0.00 54 1005.8
20260506020019 18 0.0 0.0 0.00 0.00 0.00 54 1005.7
20260506015019 18 0.0 0.0 0.00 0.00 0.00 54 1005.5
20260506014019 18 0.0 0.0 0.00 0.00 0.00 54 1005.4
20260506013039 18 0.0 6.4 0.00 0.00 0.00 54 1005.1
20260506012019 18 0.0 0.0 0.00 0.00 0.00 54 1005.1
20260506011019 18 0.0 0.0 0.00 0.00 0.00 54 1004.8
20260506010019 18 0.0 0.0 0.00 0.00 0.00 54 1004.9
20260506005019 18 0.0 0.0 0.00 0.00 0.00 54 1004.8
20260506004019 18 0.0 0.0 0.00 0.00 0.00 53 1004.8
20260506003039 18 0.0 0.0 0.00 0.00 0.00 53 1004.8
20260506002019 18 0.0 0.0 0.00 0.00 0.00 52 1004.6
20260506001019 18 0.0 0.0 0.00 0.00 0.00 52 1004.5
20260506000019 18 0.0 0.0 0.00 0.00 0.00 52 1004.6
20260505235019 18 0.0 0.0 0.00 0.00 0.00 52 1004.7
20260505234019 18 0.0 0.0 0.00 0.00 0.00 51 1004.7
20260505233019 18 0.0 0.0 0.00 0.00 0.00 51 1004.6
20260505232019 19 0.0 1.6 0.00 0.00 0.00 51 1004.5
20260505231039 19 0.0 1.6 0.00 0.00 0.00 51 1004.7
20260505230019 19 0.0 0.0 0.00 0.00 0.00 52 1004.7
20260505225019 19 0.0 0.0 0.00 0.00 0.00 51 1004.6
20260505224019 20 0.0 0.0 0.00 0.00 0.00 50 1004.9
20260505223039 20 0.0 0.0 0.00 0.00 0.00 50 1005.0
20260505222019 20 0.0 0.0 0.00 0.00 0.00 49 1005.1
20260505221019 20 0.0 0.0 0.00 0.00 0.00 48 1005.1
20260505220018 20 0.0 0.0 0.00 0.00 0.00 47 1005.1
20260505215018 20 0.0 0.0 0.00 0.00 0.00 46 1004.7
20260505214019 20 0.0 0.0 0.00 0.00 0.00 46 1004.8
20260505213039 20 0.0 0.0 0.00 0.00 0.00 46 1005.0
20260505212019 20 0.0 0.0 0.00 0.00 0.00 45 1005.1
20260505211019 20 0.0 1.6 0.00 0.00 0.00 47 1005.1
20260505210019 20 0.0 8.0 0.00 0.00 0.00 44 1005.1
20260505205019 20 0.0 8.0 0.00 0.00 0.00 44 1005.2
20260505204019 20 0.0 12.9 0.00 0.00 0.00 44 1005.1
20260505203019 20 113 1.6 9.7 0.00 0.00 0.00 44 1005.2
20260505202039 21 0.0 0.0 0.00 0.00 0.00 46 1005.0
20260505201018 21 0.0 1.6 0.00 0.00 0.00 44 1005.3
20260505200018 21 0.0 1.6 0.00 0.00 0.00 46 1005.5
20260505195019 21 0.0 1.6 0.00 0.00 0.00 45 1005.7
20260505194019 21 0.0 1.6 0.00 0.00 0.00 45 1006.0
20260505193018 21 0.0 0.0 0.00 0.00 0.00 46 1006.1
20260505192018 21 0.0 6.4 0.00 0.00 0.00 48 1006.1
20260505191019 21 0.0 0.0 0.00 0.00 0.00 45 1006.3
20260505190038 21 0.0 0.0 0.00 0.00 0.00 46 1006.3
20260505185018 21 0.0 0.0 0.00 0.00 0.00 43 1006.3
20260505184018 21 0.0 1.6 0.00 0.00 0.00 43 1006.5
20260505183019 21 0.0 1.6 0.00 0.00 0.00 47 1006.4
20260505182019 21 0.0 3.2 0.00 0.00 0.00 49 1006.5
20260505181018 21 0.0 3.2 0.00 0.00 0.00 48 1006.8
20260505180019 21 0.0 0.0 0.00 0.00 0.00 47 1006.9
20260505175038 20 0.0 3.2 0.00 0.00 0.00 52 1006.9
20260505174018 20 0.0 3.2 0.00 0.00 0.00 50 1007.2
20260505173038 20 0.0 0.0 0.00 0.00 0.00 50 1007.2
20260505172019 20 0.0 0.0 0.00 0.00 0.00 50 1007.4
20260505171020 20 0.0 0.0 0.00 0.00 0.00 50 1007.6
20260505170018 21 0.0 0.0 0.00 0.00 0.00 49 1007.7
20260505165018 20 0.0 3.2 0.00 0.00 0.00 48 1007.6
20260505164018 20 0.0 0.0 0.00 0.00 0.00 46 1007.5
20260505163020 20 0.0 8.0 0.00 0.00 0.00 47 1007.6
20260505162038 21 0.0 0.0 0.00 0.00 0.00 45 1007.7
20260505161018 20 0.0 4.8 0.00 0.00 0.00 47 1007.7
20260505153020 18 113 3.2 12.9 0.00 0.00 0.00 53 1007.7
20260505152018 19 113 1.6 9.7 0.00 0.00 0.00 56 1007.9
20260505151018 18 113 4.8 11.3 0.00 0.00 0.00 57 1008.0
20260505125020 15 0.0 0.0 0.00 0.00 0.00 67 1006.6
20260505124041 15 0.0 0.0 0.00 0.00 0.00 69 1006.6
20260505123020 15 0.0 0.0 0.00 0.00 0.00 69 1006.7
20260505122040 14 0.0 0.0 0.00 0.00 0.00 68 1006.6
20260505121020 14 0.0 3.2 0.00 0.00 0.00 68 1006.3
20260505120020 13 0.0 1.6 0.00 0.00 0.00 68 1006.6
20260505115020 13 0.0 3.2 0.00 0.00 0.00 67 1006.5
20260505114020 13 0.0 3.2 0.00 0.00 0.00 66 1006.3
20260505113019 13 0.0 1.6 0.00 0.00 0.00 64 1006.3
20260505112020 13 0.0 0.0 0.00 0.00 0.00 63 1006.0
20260505111020 13 0.0 0.0 0.00 0.00 0.00 62 1005.8
20260505102020 13 0.0 3.2 0.00 0.00 0.00 61 1005.8
20260505101020 13 0.0 3.2 0.00 0.00 0.00 60 1006.0
20260505100039 13 45 1.6 4.8 0.00 0.00 0.00 60 1006.3
20260505095019 13 0.0 3.2 0.00 0.00 0.00 59 1006.2
20260505094020 13 45 1.6 11.3 0.00 0.00 0.00 58 1006.2
20260505093020 13 45 1.6 4.8 0.00 0.00 0.00 58 1006.2
20260505092020 13 0.0 1.6 0.00 0.00 0.00 58 1006.5
20260505091059 13 0.0 0.0 0.00 0.00 0.00 57 1006.5
20260505090019 13 0.0 3.2 0.00 0.00 0.00 57 1006.6
20260505085020 13 0.0 3.2 0.00 0.00 0.00 57 1006.6
20260505084039 13 0.0 0.0 0.00 0.00 0.00 57 1006.7
20260505083019 13 0.0 1.6 0.00 0.00 0.00 57 1006.6
20260505082019 13 0.0 0.0 0.00 0.00 0.00 58 1006.8
20260505081019 13 0.0 1.6 0.00 0.00 0.00 59 1006.6
20260505080019 13 0.0 0.0 0.00 0.00 0.00 59 1006.7
20260505075019 14 0.0 0.0 0.00 0.00 0.00 57 1006.9
20260505074019 15 0.0 1.6 0.00 0.00 0.00 56 1006.9
20260505073020 15 0.0 3.2 0.00 0.00 0.00 55 1006.9
20260505072019 14 0.0 0.0 0.00 0.00 0.00 56 1007.0
20260505071019 14 0.0 0.0 0.00 0.00 0.00 56 1006.9
20260505070019 14 0.0 3.2 0.00 0.00 0.00 57 1006.9
20260505065020 14 0.0 1.6 0.00 0.00 0.00 57 1006.9
20260505064039 15 0.0 0.0 0.00 0.00 0.00 56 1006.9
20260505063019 15 0.0 1.6 0.00 0.00 0.00 57 1006.9
20260505062039 14 0.0 0.0 0.00 0.00 0.00 57 1007.0
20260505061042 14 0.0 4.8 0.00 0.00 0.00 57 1007.1
20260505060019 14 0.0 3.2 0.00 0.00 0.00 56 1007.0
20260505055019 14 0.0 1.6 0.00 0.00 0.00 56 1007.1
20260505054019 14 0.0 3.2 0.00 0.00 0.00 56 1007.2
20260505053019 14 0.0 0.0 0.00 0.00 0.00 56 1007.2
20260505052059 15 0.0 0.0 0.00 0.00 0.00 56 1007.2
20260505051019 15 0.0 8.0 0.00 0.00 0.00 55 1007.2